スミス彗星

C/2019 K7 ( Smith )

English version
Home page
Updated on August 6, 2019

---------------------------------------------------------------------

・ プロフィール

発見日 2019年5月30日
発見光度 17.7等
発見者 Ken W. Smith (Asteroid Terrestrial-Impact Last Alert System (ATLAS) search program)

・ 写真集

・ 軌道要素

Epoch 2020 May 31.0 TT = JDT 2459000.5                                          
T 2020 June 17.20481 TT                                 MPCLINUX                
q   4.4653924            (2000.0)            P               Q                  
z  -0.0027161      Peri.   27.50830     +0.45905391     -0.44843291             
 +/-0.0016262      Node   307.89933     -0.88195288     -0.12614975             
e   1.0121284      Incl.  103.61194     +0.10690473     +0.88486957             
From 142 observations 2019 May 30-July 1, mean residual 0".4.                   

・ 星図

・ 光度変化

        m1 = 6.0 + 5 logΔ + 10.0 log r

---------------------------------------------------------------------

軌道要素はM.P.E.C. 2019-N12に掲載されたものです。
星図はステラナビゲータ Ver.10 (アストロアーツ) で作成したものです。
光度グラフはComet for Windowsで作成したものです。

---------------------------------------------------------------------

Copyright(C) Seiichi Yoshida (comet@aerith.net). All rights reserved.